sat.trackr.live / text

‹ back to catalog

STARLINK-31565

NORAD 59323 · 2024-057D

PAYLOAD ACTIVE UNKNOWN

§ Identity

Operator
Country
US
Launch date
2024-03-25
Launch site
AFETR
Launch vehicle
Mass (kg)
RCS (m²)

Purposes: comms

External: N2YO · Heavens-Above · Gunter

§ Orbital elements

Epoch: 2026-05-25T05:05:10.580928Z

Period
94.27 min
Inclination
43.0007°
Eccentricity
0.0001290
Mean motion
15.27578536 rev/d
Perigee alt
482.2 km
Apogee alt
483.9 km
Semi-major
6,861.2 km
B*
6.0367e-5
RAAN
122.5728°
Arg perigee
267.2243°
Mean anomaly
92.8460°
Rev number
12,145

§ Raw data

STARLINK-315651 59323U 24057D   26145.21192802  .00001399  00000+0  60367-4 0  99902 59323  43.0007 122.5728 0001290 267.2243  92.8460 15.27578536121454

JSON: /api/v1/satellites/59323 · /tle

For live sub-satellite position, see the globe view (requires WebGL).

§ Visibility from observer

Set your observer location to see the next 7 days of passes ≥ 10°. The values pass through the URL so the page stays shareable.

No JS? Fill the form by hand. The geolocation button needs JavaScript.